{"data":{"norad_id":53486,"intl_designator":"2022-099X","name":"STARLINK-4431","alt_names":[],"object_type":"PAYLOAD","status":"ACTIVE","operator":null,"country":"US","launch_date":"2022-08-12","launch_site_code":"AFWTR","launch_vehicle":null,"mission":null,"orbit_class":"UNKNOWN","rcs_meters":null,"size_class":null,"mass_kg":null,"dimensions":null,"purposes":["comms"],"wikipedia_slug":null,"has_3d_model":false,"image_url":null,"decayed_at":null,"tle_current":{"epoch":"2026-05-25T04:00:03.998880Z","epoch_age_seconds":71024,"freshness":"FRESH","line1":"1 53486U 22099X   26145.16671295  .00698542  00000+0  15557-1 0  9990","line2":"2 53486  97.6050 267.3376 0001044  87.8329 215.4621 15.41262556  5884","mean_motion":15.41262556,"eccentricity":0.0001044,"inclination_deg":97.605,"raan_deg":267.3376,"arg_perigee_deg":87.8329,"mean_anomaly_deg":215.4621,"bstar":0.015557,"rev_number":588,"period_min":93.42989579512,"perigee_km":441.66993503321,"apogee_km":443.09405939982,"semimajor_km":6820.5189972165,"source":"CELESTRAK","updated_at":"2026-05-25T13:38:17.433908Z"}}}